TimeIST,TemperatureF,Dew PointF,Humidity,Sea Level PressureIn,VisibilityMPH,Wind Direction,Wind SpeedMPH,Gust SpeedMPH,PrecipitationIn,Events,Conditions,WindDirDegrees,DateUTC
12:00 AM,48.2,44.6,87,30.09,6.2,East,9.2,-,N/A,,Mostly Cloudy,90,2012-10-07 23:00:00
12:30 AM,50.0,44.6,82,30.06,6.2,East,10.4,-,N/A,,Mostly Cloudy,80,2012-10-07 23:30:00
1:00 AM,50,46,81,30.08,19,East,11.2,,,,Scattered Clouds,90,2012-10-08 00:00:00
1:00 AM,50.0,46.4,87,30.06,6.2,East,10.4,-,N/A,,Mostly Cloudy,90,2012-10-08 00:00:00
1:30 AM,50.0,46.4,87,30.04,6.2,East,10.4,-,N/A,Rain,Light Rain,90,2012-10-08 00:30:00
2:00 AM,50.0,46.4,87,30.04,6.2,East,9.2,-,N/A,Rain,Light Rain,100,2012-10-08 01:00:00
2:30 AM,50.0,48.2,94,30.04,6.2,East,9.2,-,N/A,Rain,Light Rain,100,2012-10-08 01:30:00
3:00 AM,50.0,48.2,94,30.01,6.2,East,9.2,-,N/A,Rain,Light Rain,100,2012-10-08 02:00:00
3:30 AM,50.0,48.2,94,30.01,6.2,East,9.2,-,N/A,Rain,Light Rain,100,2012-10-08 02:30:00
4:00 AM,50.0,48.2,94,30.01,6.2,East,6.9,-,N/A,Rain,Light Rain,100,2012-10-08 03:00:00
4:30 AM,50.0,48.2,94,30.01,6.2,ESE,8.1,-,N/A,Rain,Light Rain,110,2012-10-08 03:30:00
5:00 AM,50.0,48.2,94,30.01,6.2,ESE,5.8,-,N/A,Rain,Light Rain,110,2012-10-08 04:00:00
5:30 AM,48.2,48.2,100,29.98,6.2,East,5.8,-,N/A,Rain,Light Rain,100,2012-10-08 04:30:00
6:00 AM,50.0,48.2,94,29.98,6.2,East,5.8,-,N/A,Rain,Light Rain,90,2012-10-08 05:00:00
6:30 AM,50.0,48.2,94,29.98,6.2,East,5.8,-,N/A,Rain,Light Rain,80,2012-10-08 05:30:00
7:00 AM,49,48,97,29.99,11,East,6.7,,,Rain,Light Rain,100,2012-10-08 06:00:00
7:00 AM,50.0,48.2,94,29.98,6.2,ESE,5.8,-,N/A,Rain,Light Rain,110,2012-10-08 06:00:00
7:30 AM,50.0,48.2,94,29.98,6.2,ESE,4.6,-,N/A,Rain,Light Rain,110,2012-10-08 06:30:00
8:00 AM,50.0,46.4,87,29.98,6.2,East,6.9,-,N/A,Rain,Light Rain,90,2012-10-08 07:00:00
8:30 AM,50.0,46.4,87,29.95,6.2,East,8.1,-,N/A,,Mostly Cloudy,80,2012-10-08 07:30:00
9:00 AM,50.0,48.2,94,29.98,6.2,East,4.6,-,N/A,,Mostly Cloudy,100,2012-10-08 08:00:00
9:30 AM,50.0,48.2,94,29.98,6.2,NNE,4.6,-,N/A,,Mostly Cloudy,20,2012-10-08 08:30:00
10:00 AM,51.8,48.2,88,29.98,6.2,NNE,6.9,-,N/A,,Mostly Cloudy,30,2012-10-08 09:00:00
10:30 AM,51.8,50.0,94,29.98,6.2,NE,10.4,-,N/A,,Mostly Cloudy,50,2012-10-08 09:30:00
11:00 AM,53.6,50.0,88,29.98,6.2,NE,11.5,-,N/A,,Mostly Cloudy,50,2012-10-08 10:00:00
11:30 AM,53.6,50.0,88,29.98,6.2,NE,11.5,-,N/A,Rain,Light Rain,50,2012-10-08 10:30:00
12:00 PM,53.6,50.0,88,29.98,6.2,NE,12.7,-,N/A,,Light Drizzle,50,2012-10-08 11:00:00
12:30 PM,51.8,48.2,88,29.98,6.2,NE,13.8,-,N/A,,Mostly Cloudy,40,2012-10-08 11:30:00
1:00 PM,52,49,87,29.99,10,NE,15.7,,,Rain,Light Drizzle,40,2012-10-08 12:00:00
1:00 PM,51.8,50.0,94,29.98,6.2,NE,16.1,-,N/A,,Mostly Cloudy,40,2012-10-08 12:00:00
1:30 PM,51.8,48.2,88,29.98,6.2,NE,17.3,-,N/A,,Mostly Cloudy,40,2012-10-08 12:30:00
2:00 PM,51.8,48.2,88,29.98,6.2,NE,18.4,-,N/A,,Mostly Cloudy,50,2012-10-08 13:00:00
2:30 PM,51.8,48.2,88,29.98,6.2,NE,15.0,-,N/A,,Mostly Cloudy,50,2012-10-08 13:30:00
3:00 PM,53.6,48.2,82,29.98,6.2,NE,12.7,-,N/A,,Mostly Cloudy,50,2012-10-08 14:00:00
3:30 PM,51.8,46.4,82,29.98,6.2,NE,13.8,-,N/A,,Mostly Cloudy,40,2012-10-08 14:30:00
4:00 PM,51.8,46.4,82,29.95,6.2,NE,13.8,-,N/A,,Mostly Cloudy,50,2012-10-08 15:00:00
4:30 PM,51.8,46.4,82,29.95,6.2,NE,13.8,-,N/A,,Mostly Cloudy,40,2012-10-08 15:30:00
5:00 PM,51.8,46.4,82,29.98,6.2,NE,12.7,-,N/A,,Mostly Cloudy,50,2012-10-08 16:00:00
5:30 PM,51.8,44.6,76,29.98,6.2,NNE,13.8,-,N/A,,Mostly Cloudy,30,2012-10-08 16:30:00
6:00 PM,51.8,44.6,76,29.98,6.2,NE,11.5,-,N/A,,Mostly Cloudy,40,2012-10-08 17:00:00
6:30 PM,50.0,44.6,82,29.98,6.2,NE,11.5,-,N/A,,Mostly Cloudy,40,2012-10-08 17:30:00
7:00 PM,50,44,73,30.01,16,NE,13.4,,,,Mostly Cloudy,40,2012-10-08 18:00:00
7:00 PM,50.0,44.6,82,29.98,6.2,NE,12.7,-,N/A,,Mostly Cloudy,40,2012-10-08 18:00:00
7:30 PM,50.0,44.6,82,30.01,6.2,NE,12.7,-,N/A,,Mostly Cloudy,40,2012-10-08 18:30:00
8:00 PM,50.0,44.6,82,30.01,6.2,NNE,9.2,-,N/A,,Mostly Cloudy,30,2012-10-08 19:00:00
8:30 PM,48.2,42.8,82,30.01,6.2,NNE,9.2,-,N/A,,Mostly Cloudy,30,2012-10-08 19:30:00
9:00 PM,48.2,42.8,82,30.01,6.2,NNE,10.4,-,N/A,,Mostly Cloudy,30,2012-10-08 20:00:00
9:30 PM,48.2,42.8,82,30.01,6.2,NNE,10.4,-,N/A,,Mostly Cloudy,30,2012-10-08 20:30:00
10:00 PM,46.4,42.8,87,30.01,6.2,NE,11.5,-,N/A,,Mostly Cloudy,40,2012-10-08 21:00:00
10:30 PM,48.2,42.8,82,30.01,6.2,NNE,9.2,-,N/A,,Mostly Cloudy,30,2012-10-08 21:30:00
11:00 PM,46.4,42.8,87,30.01,6.2,NNE,9.2,-,N/A,,Scattered Clouds,30,2012-10-08 22:00:00
11:30 PM,44.6,42.8,93,30.01,6.2,NNE,8.1,-,N/A,,Scattered Clouds,30,2012-10-08 22:30:00